Gastonia, NC

12:00 PM EST on February 06, 2016 (GMT -0500)
Gastonia Municipal

Weather History for KAKH - October, 2012

Change the Weather History Date:

Friday, October 19, 2012

  Actual Average (KCLT) Record (KCLT)
Temperature  
Mean Temperature 59 °F 59 °F  
Max Temperature 71 °F 71 °F 87 °F (1938)
Min Temperature 48 °F 48 °F 30 °F (2009)
Degree Days  
Heating Degree Days 6 7  
Month to date heating degree days 85  
Since 1 July heating degree days 108  
Cooling Degree Days 0 1  
Month to date cooling degree days 32  
Year to date cooling degree days 1507  
Growing Degree Days 9 (Base 50)    
Moisture  
Dew Point 53 °F    
Average Humidity 85    
Maximum Humidity 100    
Minimum Humidity 25    
Precipitation  
Precipitation 0.01 in 0.10 in 1.20 in (1997)
Month to date precipitation 2.19  
Year to date precipitation 34.03  
Snow  
Snow 0.00 in 0.00 in 0.00 in ()
Month to date snowfall 0.0  
Since 1 July snowfall 0.0  
Since 1 September snowfall 0.0  
Snow Depth -    
Sea Level Pressure  
Sea Level Pressure 29.77 in    
Wind  
Wind Speed 1 mph (SW)    
Max Wind Speed 9 mph    
Max Gust Speed 21 mph    
Visibility 4 miles    
Events Fog    
T = Trace of Precipitation, MM = Missing Value Source: NWS Daily Summary

Daily Weather History Graph

Daily Weather History Graph

Search for Another Location

Airport or City:

Trip Planner

Search our weather history database for the weather conditions in past years. The results will help you decide how hot, cold, wet, or windy it might be!

Date:

Astronomy

Oct. 19, 2012 Rise Set
Actual Time 7:34 AM EDT 6:43 PM EDT
Civil Twilight 7:08 AM EDT 7:09 PM EDT
Nautical Twilight 6:39 AM EDT 7:39 PM EDT
Astronomical Twilight 6:09 AM EDT 8:08 PM EDT
Moon 12:08 PM EDT (10/19) 10:27 PM EDT (10/19)
Length of Visible Light 12h 00m
Length of Day
11h 09m
Waxing Crescent, 23% of the Moon is Illuminated
Oct 19
Waxing Crescent
Oct 21
First Quarter
Oct 29
Full
Nov 6
Last Quarter
Nov 13
New

Hourly Weather History & Observations

Time (EDT) Temp. Dew Point Humidity Pressure Visibility Wind Dir Wind Speed Gust Speed Precip Events Conditions
12:02 AM 60.8 °F 60.8 °F 100% 29.79 in 1.0 mi Calm Calm - N/A   Partly Cloudy
12:16 AM 60.8 °F 60.8 °F 100% 29.79 in 3.0 mi Calm Calm - N/A   Mostly Cloudy
12:26 AM 60.8 °F 60.8 °F 100% 29.79 in 2.5 mi Calm Calm - N/A   Mostly Cloudy
12:40 AM 60.8 °F 60.8 °F 100% 29.79 in 1.5 mi Calm Calm - N/A   Mostly Cloudy
12:52 AM 60.8 °F 60.8 °F 100% 29.79 in 3.0 mi Calm Calm - N/A   Overcast
12:53 AM 60.1 °F 60.1 °F 100% 29.78 in 3.0 mi Calm Calm - N/A   Overcast
1:20 AM 60.8 °F 59.0 °F 94% 29.78 in 2.0 mi Calm Calm - N/A   Scattered Clouds
1:27 AM 59.0 °F 59.0 °F 100% 29.79 in 1.8 mi Calm Calm - N/A   Mostly Cloudy
1:39 AM 59.0 °F 59.0 °F 100% 29.79 in 1.8 mi Calm Calm - N/A   Scattered Clouds
1:52 AM 59.0 °F 59.0 °F 100% 29.78 in 0.5 mi Calm Calm - N/A Fog Fog
1:54 AM 59.0 °F 59.0 °F 100% 29.77 in 0.2 mi Calm Calm - N/A Fog Fog
2:31 AM 57.2 °F 57.2 °F 100% 29.78 in 0.8 mi Calm Calm - N/A   Mostly Cloudy
2:43 AM 57.2 °F 57.2 °F 100% 29.78 in 0.5 mi Calm Calm - N/A Fog Fog
2:54 AM 57.0 °F 57.0 °F 100% 29.76 in 1.0 mi Calm Calm - N/A   Mostly Cloudy
3:12 AM 59.0 °F 57.2 °F 94% 29.77 in 2.5 mi Calm Calm - N/A   Overcast
3:30 AM 57.2 °F 57.2 °F 100% 29.76 in 0.8 mi Calm Calm - N/A   Overcast
3:43 AM 59.0 °F 59.0 °F 100% 29.76 in 2.0 mi Calm Calm - N/A   Overcast
3:54 AM 57.9 °F 57.9 °F 100% 29.75 in 1.5 mi Calm Calm - N/A   Overcast
4:21 AM 59.0 °F 59.0 °F 100% 29.76 in 0.8 mi Calm Calm - N/A   Overcast
4:30 AM 57.2 °F 57.2 °F 100% 29.76 in 0.5 mi Calm Calm - N/A Fog Fog
4:50 AM 59.0 °F 59.0 °F 100% 29.76 in 2.0 mi Calm Calm - N/A   Overcast
4:54 AM 59.0 °F 59.0 °F 100% 29.75 in 3.0 mi Calm Calm - N/A   Overcast
5:10 AM 60.8 °F 60.8 °F 100% 29.76 in 4.0 mi Calm Calm - N/A   Overcast
5:36 AM 59.0 °F 57.2 °F 94% 29.77 in 6.0 mi Calm Calm - N/A   Scattered Clouds
5:46 AM 57.2 °F 57.2 °F 100% 29.77 in 6.0 mi Calm Calm - N/A   Scattered Clouds
5:54 AM 57.9 °F 57.0 °F 97% 29.76 in 6.0 mi Calm Calm - N/A   Partly Cloudy
6:09 AM 57.2 °F 55.4 °F 94% 29.77 in 1.8 mi Calm Calm - N/A   Clear
6:17 AM 55.4 °F 55.4 °F 100% 29.77 in 0.5 mi Calm Calm - 0.01 in Fog Fog
6:24 AM 55.4 °F 55.4 °F 100% 29.77 in 0.2 mi Calm Calm - 0.01 in Fog Fog
6:54 AM 54.0 °F 53.1 °F 97% 29.78 in 0.2 mi Calm Calm - 0.01 in Fog Fog
7:54 AM 54.0 °F 54.0 °F 100% 29.78 in 0.2 mi Calm Calm - N/A Fog Fog
8:54 AM 54.0 °F 54.0 °F 100% 29.80 in 0.2 mi WSW 3.5 mph - N/A Fog Fog
9:38 AM 55.4 °F 55.4 °F 100% 29.81 in 0.5 mi Calm Calm - N/A Fog Fog
9:54 AM 57.0 °F 57.0 °F 100% 29.80 in 2.0 mi Calm Calm - N/A   Overcast
10:02 AM 55.4 °F 55.4 °F 100% 29.81 in 6.0 mi Calm Calm - N/A   Mostly Cloudy
10:11 AM 57.2 °F 57.2 °F 100% 29.81 in 8.0 mi Variable 3.5 mph - N/A   Scattered Clouds
10:54 AM 62.1 °F 52.0 °F 70% 29.80 in 10.0 mi Variable 3.5 mph - N/A   Clear
11:54 AM 66.0 °F 45.0 °F 47% 29.79 in 10.0 mi Variable 5.8 mph - N/A   Clear
12:54 PM 68.0 °F 39.0 °F 35% 29.78 in 10.0 mi Variable 6.9 mph - N/A   Clear
1:54 PM 69.1 °F 33.1 °F 26% 29.76 in 10.0 mi Variable 5.8 mph 20.7 mph N/A   Clear
2:54 PM 70.0 °F 33.1 °F 26% 29.73 in 10.0 mi SSW 9.2 mph 18.4 mph N/A   Clear
3:54 PM 70.0 °F 32.0 °F 25% 29.72 in 10.0 mi SSW 9.2 mph 18.4 mph N/A   Clear
4:54 PM 69.1 °F 32.0 °F 25% 29.72 in 10.0 mi SW 6.9 mph 19.6 mph N/A   Clear
5:54 PM 66.9 °F 35.1 °F 31% 29.73 in 10.0 mi Variable 3.5 mph - N/A   Clear
6:54 PM 62.1 °F 36.0 °F 38% 29.74 in 10.0 mi Variable 3.5 mph - N/A   Clear
7:54 PM 55.0 °F 42.1 °F 62% 29.75 in 10.0 mi Calm Calm - N/A   Clear
8:54 PM 52.0 °F 42.1 °F 69% 29.77 in 10.0 mi Calm Calm - N/A   Clear
9:54 PM 51.1 °F 43.0 °F 74% 29.78 in 10.0 mi Calm Calm - N/A   Clear
10:54 PM 48.9 °F 43.0 °F 80% 29.79 in 10.0 mi Calm Calm - N/A   Clear
11:54 PM 48.0 °F 43.0 °F 83% 29.78 in 10.0 mi Calm Calm - N/A   Clear